Bridgeport, West Virginia, United States (26330)
Lat: 39.29N, Lon: 80.26W
Wx Zone: WVZ031
Local Info
Past Weather Observations for Today

NOTE: This archive is for the closest National Weather Service station to Bridgeport. Information may differ from the station used for current weather conditions.

Click here for Long-term Archive

Time Weather Temperature Dewpoint Humidity Pressure Winds Precip Visibility
14:53
Overcast
Light Rain
52°F / 11°C 48°F / 9°C 88% 29.92 in
(1013 mb)
W 5.8 mph
(W 9 kph)
- 6SM
14:36
Overcast
52°F / 11°C 48°F / 9°C 88% 29.92 in
(1013 mb)
WNW 5.8 mph
(WNW 9 kph)
- 10SM
14:25
Overcast
Light Rain
52°F / 11°C 48°F / 9°C 88% 29.92 in
(1013 mb)
W 5.8 mph
(W 9 kph)
- 7SM
14:09
Overcast
Light Rain
52°F / 11°C 48°F / 9°C 88% 29.92 in
(1013 mb)
NW 4.6 mph
(NW 7 kph)
- 6SM
13:53
Overcast
Light Rain
52°F / 11°C 50°F / 10°C 94% 29.89 in
(1012 mb)
WNW 4.6 mph
(WNW 7 kph)
- 9SM
13:15
Overcast
Light Rain
52°F / 11°C 50°F / 10°C 94% 29.89 in
(1012 mb)
W 5.8 mph
(W 9 kph)
- 9SM
13:00
Overcast
Light Rain
52°F / 11°C 50°F / 10°C 94% 29.89 in
(1012 mb)
W 5.8 mph
(W 9 kph)
- 9SM
12:53
Overcast
Light Rain
52°F / 11°C 50°F / 10°C 94% 29.89 in
(1012 mb)
W 6.9 mph
(W 11 kph)
- 2SM
11:59
Overcast
Light Rain
52°F / 11°C 50°F / 10°C 94% 29.92 in
(1013 mb)
WNW 6.9 mph
(WNW 11 kph)
- 2SM
11:53
Overcast
Rain
52°F / 11°C 52°F / 11°C 100% 29.89 in
(1012 mb)
W 5.8 mph
(W 9 kph)
- 3SM
10:55
Overcast
Rain
52°F / 11°C 50°F / 10°C 94% 29.92 in
(1013 mb)
WNW 3.5 mph
(WNW 6 kph)
0.00 in
(0.00 mm)
3SM
10:53
Overcast
Heavy Rain
52°F / 11°C 50°F / 10°C 94% 29.92 in
(1013 mb)
WNW 4.6 mph
(WNW 7 kph)
0.00 in
(0.00 mm)
1 1/2SM
10:50
Overcast
Heavy Rain
52°F / 11°C 50°F / 10°C 94% 29.92 in
(1013 mb)
NW 3.5 mph
(NW 6 kph)
0.00 in
(0.00 mm)
1 3/4SM
09:53
Overcast
Light Rain
52°F / 11°C 50°F / 10°C 94% 29.89 in
(1012 mb)
SW 5.8 mph
(SW 9 kph)
0.00 in
(0.00 mm)
6SM
08:53
Overcast
52°F / 11°C 48°F / 9°C 88% 29.92 in
(1013 mb)
W 4.6 mph
(W 7 kph)
- 10SM
08:33
Overcast
52°F / 11°C 48°F / 9°C 88% 29.92 in
(1013 mb)
SW 5.8 mph
(SW 9 kph)
- 10SM
07:53
Overcast
52°F / 11°C 48°F / 9°C 88% 29.92 in
(1013 mb)
SW 3.5 mph
(SW 6 kph)
- 10SM
06:53
Overcast
52°F / 11°C 48°F / 9°C 88% 29.92 in
(1013 mb)
SW 3.5 mph
(SW 6 kph)
- 10SM
06:05
Overcast
52°F / 11°C 48°F / 9°C 88% 29.89 in
(1012 mb)
SW 4.6 mph
(SW 7 kph)
- 10SM
05:53
Overcast
52°F / 11°C 48°F / 9°C 88% 29.89 in
(1012 mb)
SW 6.9 mph
(SW 11 kph)
- 10SM
04:53
Overcast
52°F / 11°C 48°F / 9°C 88% 29.89 in
(1012 mb)
SW 4.6 mph
(SW 7 kph)
- 10SM
04:18
Mostly Cloudy
48°F / 9°C 46°F / 8°C 94% 29.89 in
(1012 mb)
SW 4.6 mph
(SW 7 kph)
- 10SM
03:53
Partly Cloudy
50°F / 10°C 46°F / 8°C 88% 29.89 in
(1012 mb)
SW 3.5 mph
(SW 6 kph)
- 10SM
03:29
Mostly Cloudy
48°F / 9°C 46°F / 8°C 94% 29.89 in
(1012 mb)
SW 6.9 mph
(SW 11 kph)
- 10SM
03:06
Mostly Cloudy
50°F / 10°C 46°F / 8°C 88% 29.89 in
(1012 mb)
SW 4.6 mph
(SW 7 kph)
- 10SM
02:53
Partly Cloudy
50°F / 10°C 46°F / 8°C 88% 29.89 in
(1012 mb)
SSE 5.8 mph
(SSE 9 kph)
- 10SM
01:53
Overcast
52°F / 11°C 48°F / 9°C 88% 29.89 in
(1012 mb)
SSE 4.6 mph
(SSE 7 kph)
- 10SM
00:53
Overcast
52°F / 11°C 46°F / 8°C 82% 29.89 in
(1012 mb)
SW 6.9 mph
(SW 11 kph)
- 10SM
Time Weather Temperature Dewpoint Humidity Pressure Winds Precip Visibility


Weather for websites

WeatherForYou.com, LLC is not responsible for any damages or problems caused by this service. Current weather conditions are obtained from the closest station including government and personal stations which may have varying degrees of accuracy. Weather forecasts are derived from the NOAA NDFD. Like all things, this site belongs to Jesus Christ... He just trusts me to maintain it. If you have any questions or comments email webmaster@weatherforyou.com

Copyright © 2014, WeatherForYou.com LLC. All rights reserved.